Regional Weather Roundup
Issued by NWS

Home | Current Version | Previous Version | Graphics & Text | Print | Product List | Glossary On
Versions: 1 2 3 4 5 6 7 8 9 10 11 12 13 14 15 16 17 18 19 20 21 22 23 24 25 26 27 28 29 30 31 32 33 34 35 36 37 38 39 40 41 42 43 44 45 46 47 48 49 50
160
ASUS43 KTOP 091108
RWRKS

WEATHER ROUNDUP FOR KANSAS
NATIONAL WEATHER SERVICE GOODLAND KS
500 AM CST FRI DEC 09 2016

NOTE:  "FAIR" INDICATES FEW OR NO CLOUDS BELOW 12,000 FEET WITH NO
SIGNIFICANT WEATHER AND/OR OBSTRUCTIONS TO VISIBILITY.

KSZ001>006-013>018-027>032-041>047-091200-
NORTHWEST KANSAS

CITY           SKY/WX    TMP DP  RH WIND       PRES   REMARKS
GOODLAND       CLOUDY    10   5  80 S14       30.27F WCI  -6
HILL CITY      CLOUDY    16   9  74 SE7       30.47F
RUSSELL        CLOUDY    15  10  80 SE9       30.52F
$$

KSZ061>065-074>080-084>089-091200-
SOUTHWEST KANSAS

CITY           SKY/WX    TMP DP  RH WIND       PRES   REMARKS
DODGE CITY     CLOUDY    20   6  55 SE15      30.45F WCI   6
ELKHART          N/A     23   5  46 S15         N/A  WCI  10
GARDEN CITY    CLOUDY    21   5  50 SE17      30.38F WCI   7
GREAT BEND     CLOUDY    18  11  74 SE9       30.54F
LIBERAL        CLOUDY    25   7  46 SE9       30.38F
PRATT          CLOUDY    16   9  74 SE8       30.54F
$$

KSZ066>073-081>083-090>101-091200-
SOUTHEAST KANSAS

CITY           SKY/WX    TMP DP  RH WIND       PRES   REMARKS
CHANUTE        CLEAR     13   9  84 NW3       30.66S
COFFEYVILLE    CLOUDY    15  12  88 NW3       30.69S
HUTCHINSON     CLOUDY    15  10  80 CALM      30.59F
MEDICINE LODGE   N/A     18   9  68 SE6       30.58F
NEWTON         CLOUDY    13   8  81 E3        30.60F
PARSONS        CLOUDY    11   8  88 CALM      30.68S
WICHITA INTL   CLOUDY    13   8  81 E3        30.61F
WICHITA JABRA  CLOUDY    11   7  84 CALM      30.61F
WICHITA MCCONL CLOUDY    17   8  68 E3        30.61F
WINFIELD       CLOUDY    14  10  84 CALM      30.64F
$$

KSZ007>012-019>026-033>040-048>060-102>105-091200-
NORTHEAST KANSAS

CITY           SKY/WX    TMP DP  RH WIND       PRES   REMARKS
CONCORDIA      CLOUDY    12   8  84 SE3       30.58F
EMPORIA        CLEAR     13   9  84 CALM      30.63F
LAWRENCE       CLEAR      7   5  91 W5        30.66F
MANHATTAN      CLOUDY    12   7  80 CALM      30.64F
MARYSVILLE     CLOUDY     9   3  78 CALM      30.62S
OLATHE IND     CLEAR     12   8  84 NW3       30.65F
OLATHE EXE     CLEAR     13   8  81 N3        30.64F
SALINA         CLOUDY    13   8  81 SE3       30.61F
TOPEKA BILLARD CLEAR     11   6  81 CALM      30.66F
TOPEKA FORBES  CLEAR     11   6  81 CALM      30.64F
$$




USA.gov is the U.S. government's official web portal to all federal, state and local government web resources and services.